PEGASUS DEB

Satellite information

Favourite Embed

Satellite Type and Status

DEBRISIN ORBIT

Key statistics

Satellite PEGASUS DEB at a glance.

Uptime

11478

Days in orbit

Revolutions

≈ 14.3

Per day

Orbit

LEO

Low Earth Orbit

Inclination

82.0

Latest

Satellite identification and parameters

Extended collection of information and parameters for PEGASUS DEB.

Object identification

Identified? True

Debris? True

Object name: PEGASUS DEB

International designator: 1994-029ACF

Object number (NORAD): 24973

Object ID (CCSDS): 24973

Country: UNITED STATES OF AMERICA (US)

Current information (Y/N): Y

RCS size: SMALL

Orbital parameters

Period: 100.37 minutes

Inclination: 82.0115 deg

SMA: 7154.234 km

Apoapsis: 991.113 km

Periapsis: 561.084 km

RAAN: 267.3107 deg

Eccentricy: 0.03005419

Argument of periapsis: 150.0889 deg

Mean anomaly: 242.0359 deg

Mean motion: 14.34690061 rev/day

Mean motion (dot): 0.00003202 rev/day2

B* drag term: 0.00067256347 1/REarth

Two-line elements (TLE)

Creation date: Oct. 21, 2025, 3:26 a.m.

Reference frame: TEME

Reference center: EARTH

Epoch: Oct. 20, 2025, 10:20 p.m. UTC

TLE line 0: 0 PEGASUS DEB

TLE line 1: 1 24973U 94029ACF 25293.93118028 .00003202 00000-0 67256-3 0 9998

TLE line 2: 2 24973 82.0115 267.3107 0300542 150.0889 242.0359 14.34690061514510

Live tracking on map

Real-time ground track for satellite PEGASUS DEB.

In-orbit conjunctions

A list of the most updated potential collisions computed for object PEGASUS DEB.

Target Orbit TCA Probability of collision Miss distance Type
COSMOS 2251 DEB LEO 2025-07-27 18:27:41 0.0001196927 34.0 (m) DEBRIS
COSMOS 2366 LEO 2025-04-18 04:13:51 0.0005000824 130.0 (m) PAYLOAD

Associated space launch

PEGASUS DEB was lifted into orbit during the mission ‘Pegasus HAPS | Space Test Experiments Platform 2 (STEP-2)’, on board a Pegasus HAPS space rocket.

The launch took place on May 19, 1994, 5:03 p.m. from Edwards Air Force Base.

For more information about the launch, click the button.

Launch to space Pegasus HAPS | Space Test Experiments Platform 2 (STEP-2)
Pegasus HAPS | Space Test Experiments Platform 2 (STEP-2)

Agency: N/A

Status: Launch Successful

Launch date: May 19, 1994, 5:03 p.m. UTC

Rocket: Pegasus HAPS

Launch pad: Edwards Air Force Base

Location: Air launch to orbit

...

Latest news about this satellite

There are no fresh news available about this satellite. Check back as we update our databases every day.


Newsletter sign-up

Weekly statistics, charts and insights to help you stay on top of the space industry.